Regional Weather Roundup
Issued by NWS

Home | Current Version | Previous Version | Graphics & Text | Print | Product List | Glossary On
Versions: 1 2 3 4 5 6 7 8 9 10 11 12 13 14 15 16 17 18 19 20 21 22 23 24 25 26 27 28 29 30 31 32 33 34 35 36 37 38 39 40 41 42 43 44 45 46 47 48 49 50
322
ASUS43 KMKX 271100
RWRWI

WISCONSIN REGIONAL WEATHER ROUNDUP
NATIONAL WEATHER SERVICE MILWAUKEE/SULLIVAN WI
600 AM CDT TUE JUN 27 2017

NOTE: "FAIR" INDICATES FEW OR NO CLOUDS BELOW 12,000 FEET WITH NO
SIGNIFICANT WEATHER AND/OR OBSTRUCTIONS TO VISIBILITY.

WIZ001-002-006>008-014>016-023>028-271200-
NORTHWEST WISCONSIN

CITY           SKY/WX    TMP DP  RH WIND       PRES   REMARKS
SUPERIOR ARPT  NOT AVBL
ASHLAND        CLEAR     49  46  90 SW7       30.04R
HAYWARD        CLEAR     45  43  93 CALM      30.07R
SIREN          CLEAR     44  43  96 CALM      30.07S
CUMBERLAND     CLEAR     45  45 100 CALM      30.08S
RICE LAKE      CLEAR     47  46  98 CALM      30.09S
CHETEK         CLEAR     45  45 100 CALM      30.08S
LADYSMITH      CLEAR     48  47  96 CALM      30.08S
EAU CLAIRE     NOT AVBL
MENOMONIE      CLEAR     47  46  94 CALM      30.09R
NEW RICHMOND   CLEAR     49  47  92 S3        30.09S
OSCEOLA        CLEAR     45  45 100 CALM      30.11S
$$

WIZ003>005-009-010-017-018-271200-
NORTH CENTRAL WISCONSIN

CITY           SKY/WX    TMP DP  RH WIND       PRES   REMARKS
MANITOWISH WTR FOG       42  42 100 CALM      30.04S VSB<1/4
ARBOR VITAE    PTCLDY    50  48  93 CALM      30.04R
WOODRUFF       PTCLDY    50  48  93 CALM      30.04R
RHINELANDER    PTCLDY    46  46 100 SW3       30.05S
EAGLE RIVER    CLOUDY    47  47 100 CALM      30.03S
LAND O LAKES   MOCLDY    48  48 100 CALM      30.05S
PHILLIPS       CLEAR     48  47  95 CALM      30.05R
TOMAHAWK       NOT AVBL
MEDFORD        CLEAR     49  46  88 W5        30.07S
MERRILL        CLEAR     41  41 100 CALM      30.07R
$$

WIZ029-030-035-036-043>047-271200-
CENTRAL WISCONSIN

CITY           SKY/WX    TMP DP  RH WIND       PRES   REMARKS
WAUSAU         CLEAR     50  47  89 N5        30.05S
MOSINEE        PTCLDY    48  46  93 W6        30.07S
MARSHFIELD     PTCLDY    50  45  83 W6        30.07S
STEVENS POINT  CLEAR     41  41 100 CALM      30.08S
WAUPACA        CLEAR     52  49  87 W7        30.08R
WAUTOMA        PTCLDY    46  45  96 CALM      30.10R
WISC RAPIDS    CLEAR     49  46  90 W3        30.10R
CAMP DOUGLAS   NOT AVBL
$$

WIZ011>013-019>022-031-037>040-048>050-271200-
NORTHEAST WISCONSIN

CITY           SKY/WX    TMP DP  RH WIND       PRES   REMARKS
ANTIGO         MOCLDY    44  44 100 CALM      30.06S
SHAWANO        CLEAR     50  47  88 W3        30.05S
OCONTO         CLEAR     46  45  97 W3        30.03S
STURGEON BAY     N/A     52  50  93 MISG        N/A
GREEN BAY      CLEAR     50  50 100 W6        30.05R
MANITOWOC      NOT AVBL
APPLETON       PTCLDY    48  48 100 W9        30.04S
CLINTONVILLE   CLEAR     46  45  93 W3        30.06S
OSHKOSH        CLEAR     52  46  80 W6        30.06S
$$

WIZ032>034-041-042-053>061-271200-
SOUTHWEST WISCONSIN

CITY           SKY/WX    TMP DP  RH WIND       PRES   REMARKS
LA CROSSE      CLEAR     56  50  80 S8        30.11R
SPARTA         CLEAR     38  38  99 CALM      30.12
VIROQUA        CLEAR     49  47  90 SW5       30.12R
BOSCOBEL       FOG       49  48  97 CALM      30.14R VSB<1/4
PRAIRIE DU CHI CLEAR     47  45  92 CALM      30.13S
PLATTEVILLE    CLEAR     49  47  93 W3        30.13S
$$

WIZ056-057-062-063-064-067-068-271200-
SOUTH CENTRAL WISCONSIN

CITY           SKY/WX    TMP DP  RH WIND       PRES   REMARKS
REEDSBURG      CLEAR     46  46 100 CALM      30.11R
BARABOO/DELLS  PTCLDY    46  45  93 CALM      30.10S
LONE ROCK      FOG       46  43  89 CALM      30.12S VSB 3/4
MINERAL POINT  CLEAR     50  46  87 CALM      30.12S
MADISON        PTCLDY    51  46  83 CALM      30.10S
MIDDLETON      CLEAR     50  47  90 CALM      30.11S
WATERTOWN      NOT AVBL
MONROE         CLEAR     52  45  76 W7        30.11S
JANESVILLE     CLEAR     48  46  93 CALM      30.10F
$$

WIZ051-052-058>065-066-070>072-271200-
SOUTHEAST WISCONSIN

CITY           SKY/WX    TMP DP  RH WIND       PRES   REMARKS
MILWAUKEE      PTCLDY    55  48  77 W7        30.09R
WAUKESHA       CLEAR     46  45  93 CALM      30.10S
MILWAUKEE/TIMM CLEAR     50  45  81 W3        30.09S
RACINE         CLEAR     52  46  80 W6        30.11R
KENOSHA        CLEAR     47  46  97 W3        30.10R
FOND DU LAC    CLEAR     49  45  86 CALM      30.08S
SHEBOYGAN      CLEAR     51  49  92 W5        30.06S
WEST BEND      CLEAR     50  46  87 W5        30.08S
JUNEAU         CLEAR     46  45  96 CALM      30.10S
$$

LSZ147-162-271200-
LAKE SUPERIOR

STATION/POSITION TIME  TEMP    WIND        PRES    WAVE
                       AIR SEA DIR/SP/G            HT/PER
                 (UTC) (F)     (DEG/KT/KT) (MB)    (FT/S)
W MID LAKE BUOY  0950   45 39  260/  6/  8 1016.0R   1
DEVILS ISLAND    1000   54     240/ 13/ 15 1016.2R
SAXON HARBOR     1040   54     190/  7/ 10 1015.9F
$$

LMZ867-665-643>646-271200-
LAKE MICHIGAN

STATION/POSITION TIME  TEMP    WIND        PRES    WAVE
                       AIR SEA DIR/SP/G            HT/PER
                 (UTC) (F)     (DEG/KT/KT) (MB)    (FT/S)
CHAMBERS ISLAND  1040   54     230/  4/  8 1016.3R
S GREEN BAY BUOY 1030   55     280/ 12/ 16 1016.5R
N MID LAKE BUOY  0950   56 54  270/  8/  8 1016.4R   1
NORTHPORT PIER   1040   56     280/  4/  7 1016.3R
KEWAUNEE LAKESHO 1030   51     280/  5/  7 1016.6S
SHEBOYGAN LAKESH 1000   54     270/ 11/ 12 1017.6R
PORT WASHINGTON  1030   53     280/  5/  9 1019.0S
ATWATER BUOY     0909   57 58  250/ 10/ 12 1018.3
MILWAUKEE LAKESH 1030   56     280/  8/ 10   N/A
S MID LAKE BUOY  0950   59 61  290/ 10/ 12 1018.6R   2/ 4
KENOSHA   LAKESH 1000   55     260/  4/  6 1019.0
$$

TC  - TEMPERATURE IN CELSIUS
VSB - VISIBILITY IN STATUTE MILES
WCI - WIND CHILL INDEX
HX  - HEAT INDEX





USA.gov is the U.S. government's official web portal to all federal, state and local government web resources and services.